Location: Unspecified
(0.0000°N, 0.0000°E)
Time: 12:12:07
(UTC+00:00)

Vanguard 1 - Pass Details

Date: 25 November 2019
Orbit: 652 x 3832 km, 34.3° (Epoch: 10 December)

Event Time Altitude Azimuth Distance (km) Brightness Sun altitude
Rises 07:02:14 0° 253° (WSW) 7,957 14.2 17.6°
Reaches altitude 10° 07:08:40 10° 260° (W) 6,785 13.9 19.1°
Maximum altitude 07:27:16 37° 320° (NW) 3,857 12.9 23.4°
Drops below altitude 10° 07:39:17 10° 24° (NNE) 4,415 13.5 26.1°
Sets 07:42:30 0° 33° (NNE) 5,027 13.8 26.9°
